# Site = WSO
# Longtitude = 123.123
# Latitude = 234.244
#
# UTC_Offset = 16
# TimeZone = Pacific Standard Time
#
# UTC_StartTime = 2009-02-10 00:00:00
# StationID = NAA
# Frequency = 24000
# MonitorID = SuperSID-001
# SampleRate =  5
2009-02-10 00:00:00, 14863.0715694
2009-02-10 00:00:05, 14863.0715694
2009-02-10 00:00:10, 14863.0715694
2009-02-10 00:00:15, 14924.0717053
2009-02-10 00:00:20, 14985.0718411
2009-02-10 00:00:25, 15046.071977
2009-02-10 00:00:30, 15113.4743326
2009-02-10 00:00:35, 15180.8766881
2009-02-10 00:00:40, 15248.2790437
2009-02-10 00:00:45, 15315.6813992
2009-02-10 00:00:50, 15410.519331
2009-02-10 00:00:55, 15505.3572627
2009-02-10 00:01:00, 15593.0493388
2009-02-10 00:01:05, 15680.7414148
2009-02-10 00:01:10, 15768.4334909
2009-02-10 00:01:15, 15856.1255669
2009-02-10 00:01:20, 15873.9904862
2009-02-10 00:01:25, 15891.8554055
2009-02-10 00:01:30, 15909.7203248
2009-02-10 00:01:35, 15921.1830244
2009-02-10 00:01:40, 15932.645724
2009-02-10 00:01:45, 15944.1084236
2009-02-10 00:01:50, 15955.5711233
2009-02-10 00:01:55, 15939.173372
2009-02-10 00:02:00, 15922.7756207
2009-02-10 00:02:05, 15913.5237251
2009-02-10 00:02:10, 15904.2718295
2009-02-10 00:02:15, 15895.0199339
2009-02-10 00:02:20, 15885.7680383
2009-02-10 00:02:25, 15885.3431635
2009-02-10 00:02:30, 15881.6241443
2009-02-10 00:02:35, 15877.9051251
2009-02-10 00:02:40, 15874.1861059
2009-02-10 00:02:45, 15870.4670867
2009-02-10 00:02:50, 15866.7480676
2009-02-10 00:02:55, 15863.0290484
2009-02-10 00:03:00, 15859.7349039
2009-02-10 00:03:05, 15827.5361778
2009-02-10 00:03:10, 15795.3374517
2009-02-10 00:03:15, 15763.1387256
2009-02-10 00:03:20, 15730.9399994
2009-02-10 00:03:25, 15698.7412733
2009-02-10 00:03:30, 15666.5425472
2009-02-10 00:03:35, 15637.6379656
2009-02-10 00:03:40, 15608.1356078
2009-02-10 00:03:45, 15578.6332501
2009-02-10 00:03:50, 15549.1308923
2009-02-10 00:03:55, 15519.6285346
2009-02-10 00:04:00, 15485.7815678
2009-02-10 00:04:05, 15451.9346009
2009-02-10 00:04:10, 15446.9922158
2009-02-10 00:04:15, 15442.0498306
2009-02-10 00:04:20, 15437.1074454
2009-02-10 00:04:25, 15432.1650602
2009-02-10 00:04:30, 15427.2226751
2009-02-10 00:04:35, 15420.6187479
2009-02-10 00:04:40, 15414.0148207
2009-02-10 00:04:45, 15408.0086696
2009-02-10 00:04:50, 15402.0025185
2009-02-10 00:04:55, 15395.9963674
2009-02-10 00:05:00, 15389.9902163
2009-02-10 00:05:05, 15388.3286743
2009-02-10 00:05:10, 15385.7475273
2009-02-10 00:05:15, 15383.1663803
2009-02-10 00:05:20, 15380.5852333
2009-02-10 00:05:25, 15378.0040862
2009-02-10 00:05:30, 15375.4229392
2009-02-10 00:05:35, 15372.8417922
2009-02-10 00:05:40, 15371.9221872
2009-02-10 00:05:45, 15371.0025822
2009-02-10 00:05:50, 15370.0829772
2009-02-10 00:05:55, 15369.1633722
2009-02-10 00:06:00, 15368.2437671
2009-02-10 00:06:05, 15367.3241621
2009-02-10 00:06:10, 15373.1151927
2009-02-10 00:06:15, 15379.8258283
2009-02-10 00:06:20, 15380.0965109
2009-02-10 00:06:25, 15380.3671935
2009-02-10 00:06:30, 15380.6378762
2009-02-10 00:06:35, 15380.9085588
2009-02-10 00:06:40, 15381.1792415
2009-02-10 00:06:45, 15381.4499241
2009-02-10 00:06:50, 15381.7206067
2009-02-10 00:06:55, 15381.9912894
2009-02-10 00:07:00, 15382.261972
2009-02-10 00:07:05, 15382.5326546
2009-02-10 00:07:10, 15382.8033373
2009-02-10 00:07:15, 15376.3633844
2009-02-10 00:07:20, 15390.3638242
2009-02-10 00:07:25, 15410.804217
2009-02-10 00:07:30, 15431.2446098
2009-02-10 00:07:35, 15469.8042293
2009-02-10 00:07:40, 15508.3638488
2009-02-10 00:07:45, 15546.9234683
2009-02-10 00:07:50, 15583.6094109
2009-02-10 00:07:55, 15620.2953536
2009-02-10 00:08:00, 15656.9812962
2009-02-10 00:08:05, 15693.6672388
2009-02-10 00:08:10, 15730.3531814
2009-02-10 00:08:15, 15767.0391241
2009-02-10 00:08:20, 15803.7250667
2009-02-10 00:08:25, 15794.9315083
2009-02-10 00:08:30, 15786.13795
2009-02-10 00:08:35, 15777.3443916
2009-02-10 00:08:40, 15750.4316065
2009-02-10 00:08:45, 15723.5188214
2009-02-10 00:08:50, 15696.6060364
2009-02-10 00:08:55, 15671.5669282
2009-02-10 00:09:00, 15646.52782
2009-02-10 00:09:05, 15621.4887118
2009-02-10 00:09:10, 15596.4496036
2009-02-10 00:09:15, 15571.4104954
2009-02-10 00:09:20, 15546.3713872
2009-02-10 00:09:25, 15558.0190924
2009-02-10 00:09:30, 15594.7059058
2009-02-10 00:09:35, 15631.3927192
2009-02-10 00:09:40, 15668.0795327
2009-02-10 00:09:45, 15704.7663461
2009-02-10 00:09:50, 15741.4531595
2009-02-10 00:09:55, 15727.4344215
2009-02-10 00:10:00, 15713.4156836
2009-02-10 00:10:05, 15699.3969457
2009-02-10 00:10:10, 15685.3782077
2009-02-10 00:10:15, 15671.3594698
2009-02-10 00:10:20, 15657.3407319
2009-02-10 00:10:25, 15643.3219939
2009-02-10 00:10:30, 15592.6164426
2009-02-10 00:10:35, 15541.9108913
2009-02-10 00:10:40, 15491.2053399
2009-02-10 00:10:45, 15440.4997886
2009-02-10 00:10:50, 15389.7942372
2009-02-10 00:10:55, 15339.1990465
2009-02-10 00:11:00, 15339.3094072
2009-02-10 00:11:05, 15339.4197679
2009-02-10 00:11:10, 15339.5301285
2009-02-10 00:11:15, 15339.6404892
2009-02-10 00:11:20, 15339.7508498
2009-02-10 00:11:25, 15339.8612105
2009-02-10 00:11:30, 15339.9715711
2009-02-10 00:11:35, 15340.0819318
2009-02-10 00:11:40, 15340.1922925
2009-02-10 00:11:45, 15347.4462181
2009-02-10 00:11:50, 15354.7001438
2009-02-10 00:11:55, 15361.9540695
2009-02-10 00:12:00, 15359.0871294
2009-02-10 00:12:05, 15356.2201893
2009-02-10 00:12:10, 15353.3532492
2009-02-10 00:12:15, 15350.4863091
2009-02-10 00:12:20, 15347.619369
2009-02-10 00:12:25, 15344.7524289
2009-02-10 00:12:30, 15341.8854888
2009-02-10 00:12:35, 15309.903383
2009-02-10 00:12:40, 15277.9212772
2009-02-10 00:12:45, 15245.9391715
2009-02-10 00:12:50, 15204.5884171
2009-02-10 00:12:55, 15163.2376627
2009-02-10 00:13:00, 15121.8869083
2009-02-10 00:13:05, 15090.546659
2009-02-10 00:13:10, 15039.4748299
2009-02-10 00:13:15, 14988.4030007
2009-02-10 00:13:20, 14937.3311716
2009-02-10 00:13:25, 14886.2593425
2009-02-10 00:13:30, 14835.1875133
2009-02-10 00:13:35, 14784.1156842
2009-02-10 00:13:40, 14762.1590208
2009-02-10 00:13:45, 14740.2023573
2009-02-10 00:13:50, 14718.2456938
2009-02-10 00:13:55, 14698.514114
2009-02-10 00:14:00, 14678.7825341
2009-02-10 00:14:05, 14659.0509543
2009-02-10 00:14:10, 14662.4287112
2009-02-10 00:14:15, 14685.538048
2009-02-10 00:14:20, 14699.9853164
2009-02-10 00:14:25, 14714.4325848
2009-02-10 00:14:30, 14728.8798531
2009-02-10 00:14:35, 14743.3271215
2009-02-10 00:14:40, 14714.4027653
2009-02-10 00:14:45, 14685.4784091
2009-02-10 00:14:50, 14656.5540529
2009-02-10 00:14:55, 14627.6296967
2009-02-10 00:15:00, 14598.7053405
2009-02-10 00:15:05, 14569.7809842
2009-02-10 00:15:10, 14540.856628
2009-02-10 00:15:15, 14488.822935
2009-02-10 00:15:20, 14436.789242
2009-02-10 00:15:25, 14393.4176174
2009-02-10 00:15:30, 14350.0459928
2009-02-10 00:15:35, 14306.6743682
2009-02-10 00:15:40, 14294.8483147
2009-02-10 00:15:45, 14326.3938857
2009-02-10 00:15:50, 14357.9394567
2009-02-10 00:15:55, 14389.4850278
2009-02-10 00:16:00, 14421.0305988
2009-02-10 00:16:05, 14452.5761698
2009-02-10 00:16:10, 14484.1217408
2009-02-10 00:16:15, 14535.161678
2009-02-10 00:16:20, 14586.2016152
2009-02-10 00:16:25, 14616.6461301
2009-02-10 00:16:30, 14647.0906451
2009-02-10 00:16:35, 14677.53516
2009-02-10 00:16:40, 14707.9796749
2009-02-10 00:16:45, 14706.8786188
2009-02-10 00:16:50, 14705.7775627
2009-02-10 00:16:55, 14704.6765066
2009-02-10 00:17:00, 14703.5754505
2009-02-10 00:17:05, 14702.4743944
2009-02-10 00:17:10, 14701.3733383
2009-02-10 00:17:15, 14681.6434811
2009-02-10 00:17:20, 14635.1804627
2009-02-10 00:17:25, 14588.7174443
2009-02-10 00:17:30, 14562.8498482
2009-02-10 00:17:35, 14536.982252
2009-02-10 00:17:40, 14511.1146559
2009-02-10 00:17:45, 14485.2470597
2009-02-10 00:17:50, 14459.3794636
2009-02-10 00:17:55, 14402.7122261
2009-02-10 00:18:00, 14346.0449886
2009-02-10 00:18:05, 14289.3777511
2009-02-10 00:18:10, 14232.7105137
2009-02-10 00:18:15, 14176.0432762
2009-02-10 00:18:20, 14138.0048397
2009-02-10 00:18:25, 14107.2051984
2009-02-10 00:18:30, 14076.4055571
2009-02-10 00:18:35, 14045.6059157
2009-02-10 00:18:40, 14014.8062744
2009-02-10 00:18:45, 13984.006633
2009-02-10 00:18:50, 13953.2069917
2009-02-10 00:18:55, 13944.5206367
2009-02-10 00:19:00, 13966.6339231
2009-02-10 00:19:05, 13968.5072841
2009-02-10 00:19:10, 13970.380645
2009-02-10 00:19:15, 13972.2540059
2009-02-10 00:19:20, 13974.1273669
2009-02-10 00:19:25, 13976.0007278
2009-02-10 00:19:30, 13977.8740887
2009-02-10 00:19:35, 13979.7474497
2009-02-10 00:19:40, 13981.6208106
2009-02-10 00:19:45, 13983.4941715
2009-02-10 00:19:50, 13985.3675324
2009-02-10 00:19:55, 13987.2408934
2009-02-10 00:20:00, 13967.0009679
2009-02-10 00:20:05, 13967.038089
2009-02-10 00:20:10, 13987.3151356
2009-02-10 00:20:15, 14007.5921821
2009-02-10 00:20:20, 14027.8692287
2009-02-10 00:20:25, 14048.1462753
2009-02-10 00:20:30, 14068.4233218
2009-02-10 00:20:35, 14088.7003684
2009-02-10 00:20:40, 14108.977415
2009-02-10 00:20:45, 14129.2544616
2009-02-10 00:20:50, 14149.5315081
2009-02-10 00:20:55, 14169.8085547
2009-02-10 00:21:00, 14195.8565734
2009-02-10 00:21:05, 14221.9045921
2009-02-10 00:21:10, 14227.6755642
2009-02-10 00:21:15, 14236.9335758
2009-02-10 00:21:20, 14246.1915873
2009-02-10 00:21:25, 14255.4495989
2009-02-10 00:21:30, 14264.7076105
2009-02-10 00:21:35, 14302.0058352
2009-02-10 00:21:40, 14339.30406
2009-02-10 00:21:45, 14340.8508684
2009-02-10 00:21:50, 14342.3976769
2009-02-10 00:21:55, 14343.9444853
2009-02-10 00:22:00, 14334.3800137
2009-02-10 00:22:05, 14319.0445699
2009-02-10 00:22:10, 14303.7091261
2009-02-10 00:22:15, 14288.3736823
2009-02-10 00:22:20, 14266.3546334
2009-02-10 00:22:25, 14244.3355846
2009-02-10 00:22:30, 14222.3165358
2009-02-10 00:22:35, 14200.297487
2009-02-10 00:22:40, 14150.2382249
2009-02-10 00:22:45, 14100.1789629
2009-02-10 00:22:50, 14085.8711172
2009-02-10 00:22:55, 14071.5632715
2009-02-10 00:23:00, 14057.2554258
2009-02-10 00:23:05, 14054.0588601
2009-02-10 00:23:10, 14050.8622945
2009-02-10 00:23:15, 14045.8831654
2009-02-10 00:23:20, 14040.9040362
2009-02-10 00:23:25, 14039.1214727
2009-02-10 00:23:30, 14037.3389091
2009-02-10 00:23:35, 14035.5563456
2009-02-10 00:23:40, 14033.773782
2009-02-10 00:23:45, 14031.9912185
2009-02-10 00:23:50, 14030.2086549
2009-02-10 00:23:55, 14028.4260914
2009-02-10 00:24:00, 14026.6435278
2009-02-10 00:24:05, 14024.8609643
2009-02-10 00:24:10, 14023.0784007
2009-02-10 00:24:15, 14064.2346856
2009-02-10 00:24:20, 14107.1735341
2009-02-10 00:24:25, 14150.1123826
2009-02-10 00:24:30, 14195.5215036
2009-02-10 00:24:35, 14240.9306246
2009-02-10 00:24:40, 14286.3397456
2009-02-10 00:24:45, 14331.7488666
2009-02-10 00:24:50, 14384.6559639
2009-02-10 00:24:55, 14437.5630612
2009-02-10 00:25:00, 14490.4701585
2009-02-10 00:25:05, 14543.3772558
2009-02-10 00:25:10, 14596.2843531
2009-02-10 00:25:15, 14649.1914503
2009-02-10 00:25:20, 14659.1596992
2009-02-10 00:25:25, 14686.0377939
2009-02-10 00:25:30, 14704.0781652
2009-02-10 00:25:35, 14670.8530186
2009-02-10 00:25:40, 14637.627872
2009-02-10 00:25:45, 14604.4027254
2009-02-10 00:25:50, 14571.1775787
2009-02-10 00:25:55, 14530.4544558
2009-02-10 00:26:00, 14489.7313329
2009-02-10 00:26:05, 14449.00821
2009-02-10 00:26:10, 14408.2850871
2009-02-10 00:26:15, 14367.5619642
2009-02-10 00:26:20, 14326.8388413
2009-02-10 00:26:25, 14286.1157184
2009-02-10 00:26:30, 14228.4827496
2009-02-10 00:26:35, 14214.8363816
2009-02-10 00:26:40, 14249.9852589
2009-02-10 00:26:45, 14285.1341362
2009-02-10 00:26:50, 14320.2830135
2009-02-10 00:26:55, 14363.794137
2009-02-10 00:27:00, 14407.3052604
2009-02-10 00:27:05, 14429.843083
2009-02-10 00:27:10, 14452.3809056
2009-02-10 00:27:15, 14474.9187282
2009-02-10 00:27:20, 14497.4565508
2009-02-10 00:27:25, 14519.9943733
2009-02-10 00:27:30, 14542.5321959
2009-02-10 00:27:35, 14565.0700185
2009-02-10 00:27:40, 14532.7599937
2009-02-10 00:27:45, 14500.449969
2009-02-10 00:27:50, 14468.1399442
2009-02-10 00:27:55, 14435.8299195
2009-02-10 00:28:00, 14383.2609254
2009-02-10 00:28:05, 14330.6919313
2009-02-10 00:28:10, 14299.096238
2009-02-10 00:28:15, 14267.5005448
2009-02-10 00:28:20, 14235.9048516
2009-02-10 00:28:25, 14204.3091584
2009-02-10 00:28:30, 14172.7134652
2009-02-10 00:28:35, 14124.0976652
2009-02-10 00:28:40, 14075.4818652
2009-02-10 00:28:45, 14046.5650352
2009-02-10 00:28:50, 14017.6482052
2009-02-10 00:28:55, 13988.7313752
2009-02-10 00:29:00, 13959.8145452
2009-02-10 00:29:05, 13942.7944384
2009-02-10 00:29:10, 13921.7985201
2009-02-10 00:29:15, 13900.8026017
2009-02-10 00:29:20, 13879.8066833
2009-02-10 00:29:25, 13858.810765
2009-02-10 00:29:30, 13837.8148466
2009-02-10 00:29:35, 13816.8189283
2009-02-10 00:29:40, 13812.8431167
2009-02-10 00:29:45, 13807.012109
2009-02-10 00:29:50, 13801.1811013
2009-02-10 00:29:55, 13795.3500935
2009-02-10 00:30:00, 13789.5190858
2009-02-10 00:30:05, 13783.6880781
2009-02-10 00:30:10, 13777.8570703
2009-02-10 00:30:15, 13776.0018742
2009-02-10 00:30:20, 13774.146678
2009-02-10 00:30:25, 13772.2914818
2009-02-10 00:30:30, 13770.4362856
2009-02-10 00:30:35, 13768.5810894
2009-02-10 00:30:40, 13766.7258933
2009-02-10 00:30:45, 13781.7714182
2009-02-10 00:30:50, 13792.0709916
2009-02-10 00:30:55, 13802.3705651
2009-02-10 00:31:00, 13812.6701385
2009-02-10 00:31:05, 13822.9697119
2009-02-10 00:31:10, 13833.2692853
2009-02-10 00:31:15, 13843.5688587
2009-02-10 00:31:20, 13853.8684322
2009-02-10 00:31:25, 13864.1680056
2009-02-10 00:31:30, 13874.467579
2009-02-10 00:31:35, 13884.7671524
2009-02-10 00:31:40, 13895.0667258
2009-02-10 00:31:45, 13905.3662993
2009-02-10 00:31:50, 13899.6802828
2009-02-10 00:31:55, 13901.4098096
2009-02-10 00:32:00, 13903.1393363
2009-02-10 00:32:05, 13904.8688631
2009-02-10 00:32:10, 13906.5983899
2009-02-10 00:32:15, 13908.3279167
2009-02-10 00:32:20, 13910.0574435
2009-02-10 00:32:25, 13896.1646706
2009-02-10 00:32:30, 13882.2718977
2009-02-10 00:32:35, 13868.3791248
2009-02-10 00:32:40, 13845.929085
2009-02-10 00:32:45, 13823.4790452
2009-02-10 00:32:50, 13801.0290055
2009-02-10 00:32:55, 13766.7209256
2009-02-10 00:33:00, 13731.5984502
2009-02-10 00:33:05, 13696.4759747
2009-02-10 00:33:10, 13661.3534993
2009-02-10 00:33:15, 13611.4587545
2009-02-10 00:33:20, 13561.5640097
2009-02-10 00:33:25, 13511.6692649
2009-02-10 00:33:30, 13467.0187101
2009-02-10 00:33:35, 13422.3681553
2009-02-10 00:33:40, 13377.7176006
2009-02-10 00:33:45, 13341.6243127
2009-02-10 00:33:50, 13305.5310248
2009-02-10 00:33:55, 13248.3565962
2009-02-10 00:34:00, 13202.1250765
2009-02-10 00:34:05, 13155.8935568
2009-02-10 00:34:10, 13109.6620371
2009-02-10 00:34:15, 13063.4305174
2009-02-10 00:34:20, 13031.9712671
2009-02-10 00:34:25, 13000.5120168
2009-02-10 00:34:30, 12969.0527665
2009-02-10 00:34:35, 12947.9716258
2009-02-10 00:34:40, 12926.8904852
2009-02-10 00:34:45, 12905.8093445
2009-02-10 00:34:50, 12884.7282039
2009-02-10 00:34:55, 12868.3852294
2009-02-10 00:35:00, 12873.1233955
2009-02-10 00:35:05, 12841.6230907
2009-02-10 00:35:10, 12810.1227858
2009-02-10 00:35:15, 12778.6224809
2009-02-10 00:35:20, 12747.122176
2009-02-10 00:35:25, 12715.6218711
2009-02-10 00:35:30, 12684.1215662
2009-02-10 00:35:35, 12652.6212613
2009-02-10 00:35:40, 12613.8179925
2009-02-10 00:35:45, 12575.0147238
2009-02-10 00:35:50, 12536.211455
2009-02-10 00:35:55, 12497.4081863
2009-02-10 00:36:00, 12434.8954733
2009-02-10 00:36:05, 12372.3827604
2009-02-10 00:36:10, 12346.1085186
2009-02-10 00:36:15, 12305.6934041
2009-02-10 00:36:20, 12265.2782896
2009-02-10 00:36:25, 12224.8631751
2009-02-10 00:36:30, 12184.4480606
2009-02-10 00:36:35, 12115.284873
2009-02-10 00:36:40, 12046.1216853
2009-02-10 00:36:45, 11984.2614616
2009-02-10 00:36:50, 11922.4012378
2009-02-10 00:36:55, 11860.5410141
2009-02-10 00:37:00, 11798.6807903
2009-02-10 00:37:05, 11755.7918445
2009-02-10 00:37:10, 11712.9028987
2009-02-10 00:37:15, 11670.0139529
2009-02-10 00:37:20, 11641.2658798
2009-02-10 00:37:25, 11612.5178067
2009-02-10 00:37:30, 11583.7697336
2009-02-10 00:37:35, 11565.4101844
2009-02-10 00:37:40, 11575.7987083
2009-02-10 00:37:45, 11576.738856
2009-02-10 00:37:50, 11577.6790037
2009-02-10 00:37:55, 11578.6191515
2009-02-10 00:38:00, 11579.5592992
2009-02-10 00:38:05, 11580.4994469
2009-02-10 00:38:10, 11581.4395946
2009-02-10 00:38:15, 11582.3797423
2009-02-10 00:38:20, 11583.3198901
2009-02-10 00:38:25, 11584.2600378
2009-02-10 00:38:30, 11585.2001855
2009-02-10 00:38:35, 11570.9349026
2009-02-10 00:38:40, 11526.237517
2009-02-10 00:38:45, 11481.5401315
2009-02-10 00:38:50, 11446.2911221
2009-02-10 00:38:55, 11411.0421128
2009-02-10 00:39:00, 11375.7931035
2009-02-10 00:39:05, 11340.5440941
2009-02-10 00:39:10, 11305.2950848
2009-02-10 00:39:15, 11263.6046733
2009-02-10 00:39:20, 11221.9142618
2009-02-10 00:39:25, 11180.2238502
2009-02-10 00:39:30, 11138.5334387
2009-02-10 00:39:35, 11096.8430272
2009-02-10 00:39:40, 11070.3580463
2009-02-10 00:39:45, 11063.9166442
2009-02-10 00:39:50, 11057.475242
2009-02-10 00:39:55, 11051.0338398
2009-02-10 00:40:00, 11044.5924376
2009-02-10 00:40:05, 11038.1510354
2009-02-10 00:40:10, 11031.7096333
2009-02-10 00:40:15, 11032.1151513
2009-02-10 00:40:20, 11038.9620714
2009-02-10 00:40:25, 11045.8089916
2009-02-10 00:40:30, 11052.6559118
2009-02-10 00:40:35, 11059.502832
2009-02-10 00:40:40, 11066.3497522
2009-02-10 00:40:45, 11073.1966724
2009-02-10 00:40:50, 11080.0435925
2009-02-10 00:40:55, 11086.8905127
2009-02-10 00:41:00, 11093.7374329
2009-02-10 00:41:05, 11106.5443023
2009-02-10 00:41:10, 11119.3511716
2009-02-10 00:41:15, 11116.8984392
2009-02-10 00:41:20, 11097.9968245
2009-02-10 00:41:25, 11079.0952099
2009-02-10 00:41:30, 11060.1935953
2009-02-10 00:41:35, 11041.2919807
2009-02-10 00:41:40, 11022.3903661
2009-02-10 00:41:45, 11003.4887514
2009-02-10 00:41:50, 10984.5871368
2009-02-10 00:41:55, 10965.6855222
2009-02-10 00:42:00, 10946.7839076
2009-02-10 00:42:05, 10927.882293
2009-02-10 00:42:10, 10903.0207292
2009-02-10 00:42:15, 10878.1591654
2009-02-10 00:42:20, 10882.7329504
2009-02-10 00:42:25, 10885.072487
2009-02-10 00:42:30, 10845.9741981
2009-02-10 00:42:35, 10806.8759092
2009-02-10 00:42:40, 10767.7776202
2009-02-10 00:42:45, 10728.6793313
2009-02-10 00:42:50, 10689.5810424
2009-02-10 00:42:55, 10650.4827534
2009-02-10 00:43:00, 10611.3844645
2009-02-10 00:43:05, 10554.9724667
2009-02-10 00:43:10, 10498.5604689
2009-02-10 00:43:15, 10442.1484711
2009-02-10 00:43:20, 10365.7439862
2009-02-10 00:43:25, 10275.1637542
2009-02-10 00:43:30, 10196.4197328
2009-02-10 00:43:35, 10159.1135368
2009-02-10 00:43:40, 10121.8073409
2009-02-10 00:43:45, 10084.5011449
2009-02-10 00:43:50, 10047.1949489
2009-02-10 00:43:55, 10009.888753
2009-02-10 00:44:00, 9972.58255702
2009-02-10 00:44:05, 9935.27636106
2009-02-10 00:44:10, 9915.28387399
2009-02-10 00:44:15, 9895.29138692
2009-02-10 00:44:20, 9892.26777811
2009-02-10 00:44:25, 9909.23665637
2009-02-10 00:44:30, 9926.20553463
2009-02-10 00:44:35, 9943.17441289
2009-02-10 00:44:40, 9960.14329115
2009-02-10 00:44:45, 9977.11216942
2009-02-10 00:44:50, 9994.08104768
2009-02-10 00:44:55, 10011.0499259
2009-02-10 00:45:00, 10028.2920189
2009-02-10 00:45:05, 10045.5341118
2009-02-10 00:45:10, 10055.1587513
2009-02-10 00:45:15, 10064.7833908
2009-02-10 00:45:20, 10074.4080302
2009-02-10 00:45:25, 10067.0637915
2009-02-10 00:45:30, 10059.7195527
2009-02-10 00:45:35, 10052.3753139
2009-02-10 00:45:40, 10045.0310751
2009-02-10 00:45:45, 10016.6523042
2009-02-10 00:45:50, 9988.2735333
2009-02-10 00:45:55, 9959.89476239
2009-02-10 00:46:00, 9931.51599147
2009-02-10 00:46:05, 9902.8640059
2009-02-10 00:46:10, 9874.21202032
2009-02-10 00:46:15, 9853.17748818
2009-02-10 00:46:20, 9832.14295604
2009-02-10 00:46:25, 9811.1084239
2009-02-10 00:46:30, 9790.07389176
2009-02-10 00:46:35, 9769.03935963
2009-02-10 00:46:40, 9748.00482749
2009-02-10 00:46:45, 9755.09353548
2009-02-10 00:46:50, 9783.21677561
2009-02-10 00:46:55, 9807.09404868
2009-02-10 00:47:00, 9830.97132175
2009-02-10 00:47:05, 9854.84859482
2009-02-10 00:47:10, 9878.72586789
2009-02-10 00:47:15, 9902.60314096
2009-02-10 00:47:20, 9926.48041403
2009-02-10 00:47:25, 9950.3576871
2009-02-10 00:47:30, 9974.23496017
2009-02-10 00:47:35, 9998.11223324
2009-02-10 00:47:40, 10021.9895063
2009-02-10 00:47:45, 10045.8667794
2009-02-10 00:47:50, 10026.5844057
2009-02-10 00:47:55, 10007.3020319
2009-02-10 00:48:00, 9992.26562527
2009-02-10 00:48:05, 9977.22921862
2009-02-10 00:48:10, 9962.19281196
2009-02-10 00:48:15, 9947.1564053
2009-02-10 00:48:20, 9932.11999864
2009-02-10 00:48:25, 9917.08359198
2009-02-10 00:48:30, 9902.04718532
2009-02-10 00:48:35, 9887.01077866
2009-02-10 00:48:40, 9871.974372
2009-02-10 00:48:45, 9856.93796534
2009-02-10 00:48:50, 9846.26190725
2009-02-10 00:48:55, 9850.62225582
2009-02-10 00:49:00, 9854.9826044
2009-02-10 00:49:05, 9859.34295297
2009-02-10 00:49:10, 9863.70330154
2009-02-10 00:49:15, 9868.06365012
2009-02-10 00:49:20, 9872.42399869
2009-02-10 00:49:25, 9878.89247682
2009-02-10 00:49:30, 9885.36095495
2009-02-10 00:49:35, 9891.82943308
2009-02-10 00:49:40, 9898.29791121
2009-02-10 00:49:45, 9904.76638935
2009-02-10 00:49:50, 9883.5989657
2009-02-10 00:49:55, 9842.51488178
2009-02-10 00:50:00, 9801.43079786
2009-02-10 00:50:05, 9760.34671393
2009-02-10 00:50:10, 9719.26263001
2009-02-10 00:50:15, 9678.17854609
2009-02-10 00:50:20, 9637.09446217
2009-02-10 00:50:25, 9596.01037825
2009-02-10 00:50:30, 9552.81816477
2009-02-10 00:50:35, 9509.62595129
2009-02-10 00:50:40, 9466.43373782
2009-02-10 00:50:45, 9420.57508647
2009-02-10 00:50:50, 9374.71643513
2009-02-10 00:50:55, 9356.49368557
2009-02-10 00:51:00, 9339.37002975
2009-02-10 00:51:05, 9308.71069227
2009-02-10 00:51:10, 9278.0513548
2009-02-10 00:51:15, 9247.39201732
2009-02-10 00:51:20, 9216.73267984
2009-02-10 00:51:25, 9186.07334236
2009-02-10 00:51:30, 9155.41400489
2009-02-10 00:51:35, 9124.75466741
2009-02-10 00:51:40, 9094.09532993
2009-02-10 00:51:45, 9063.43599246
2009-02-10 00:51:50, 9035.44309284
2009-02-10 00:51:55, 9007.231964
2009-02-10 00:52:00, 8962.36478468
2009-02-10 00:52:05, 8931.9548233
2009-02-10 00:52:10, 8915.00773098
2009-02-10 00:52:15, 8891.39850084
2009-02-10 00:52:20, 8867.7892707
2009-02-10 00:52:25, 8844.18004056
2009-02-10 00:52:30, 8806.09535703
2009-02-10 00:52:35, 8758.93582846
2009-02-10 00:52:40, 8711.77629988
2009-02-10 00:52:45, 8664.61677131
2009-02-10 00:52:50, 8617.45724273
2009-02-10 00:52:55, 8570.29771416
2009-02-10 00:53:00, 8523.35641481
2009-02-10 00:53:05, 8493.07116595
2009-02-10 00:53:10, 8462.78591709
2009-02-10 00:53:15, 8432.57348084
2009-02-10 00:53:20, 8409.0231824
2009-02-10 00:53:25, 8385.47288397
2009-02-10 00:53:30, 8361.92258553
2009-02-10 00:53:35, 8370.22249916
2009-02-10 00:53:40, 8387.59725783
2009-02-10 00:53:45, 8401.9653265
2009-02-10 00:53:50, 8416.33339517
2009-02-10 00:53:55, 8430.70146384
2009-02-10 00:54:00, 8441.56148819
2009-02-10 00:54:05, 8452.42151254
2009-02-10 00:54:10, 8463.28153689
2009-02-10 00:54:15, 8474.14156124
2009-02-10 00:54:20, 8485.00158559
2009-02-10 00:54:25, 8495.86160994
2009-02-10 00:54:30, 8506.72163429
2009-02-10 00:54:35, 8517.58165864
2009-02-10 00:54:40, 8511.06692432
2009-02-10 00:54:45, 8504.55219
2009-02-10 00:54:50, 8501.04414568
2009-02-10 00:54:55, 8497.53610136
2009-02-10 00:55:00, 8530.47449172